Regional Weather Roundup
Issued by NWS Green Bay, WI

Home | Current Version | Previous Version | Graphics & Text | Print | Product List | Glossary Off
Versions: 1 2 3 4 5 6 7 8 9 10 11 12 13 14 15 16 17 18 19 20 21 22 23 24 25 26 27 28 29 30 31 32 33 34 35 36 37 38 39 40 41 42 43 44 45 46 47 48 49 50

000
ASUS43 KGRB 131700
RWRGRB

NORTH-CENTRAL AND NORTHEAST WISCONSIN REGIONAL WEATHER ROUNDUP
NATIONAL WEATHER SERVICE GREEN BAY WI
1100 AM CST SAT FEB 13 2016

WIZ005-009-010>012-018-019-131800-
NORTH CENTRAL WISCONSIN

CITY           SKY/WX    TMP DP  RH WIND       PRES   REMARKS
IRONWOOD       CLOUDY    -2  -6  84 W9        30.48F WCI -18
MANITOWISH WTR NOT AVBL
ARBOR VITAE    NOT AVBL
EAGLE RIVER    NOT AVBL
LAND O LAKES   NOT AVBL
RHINELANDER    MOSUNNY    2  -8  63 MISG      30.45F
PHILLIPS       NOT AVBL
ANTIGO         NOT AVBL
TOMAHAWK       NOT AVBL
MERRILL        NOT AVBL
$$

WIZ013-073-131800-
NORTHEAST WISCONSIN

CITY           SKY/WX    TMP DP  RH WIND       PRES   REMARKS
IRON MOUNTAIN  MIX PCPN   5  -6  60 NW13      30.44F WCI -12
MARINETTE      SUNNY      7  -8  51 NW13      30.51S WCI  -9
$$

WIZ017-030-035>037-045-131800-
CENTRAL WISCONSIN

CITY           SKY/WX    TMP DP  RH WIND       PRES   REMARKS
MEDFORD        NOT AVBL
WAUSAU         SUNNY      1 -10  60 NW7       30.52F WCI -12
MOSINEE        SUNNY      0  -9  65 NW9       30.53F WCI -16
MARSHFIELD     SUNNY     -1 -13  56 NW8       30.54S WCI -15
WISC RAPIDS    SUNNY      1 -12  54 N10       30.58S WCI -15
STEVENS POINT  NOT AVBL
WAUPACA        NOT AVBL
SHAWANO        NOT AVBL
CLINTONVILLE   NOT AVBL
WAUTOMA        NOT AVBL
$$

WIZ038-039-048-051-131800-
FOX VALLEY

CITY           SKY/WX    TMP DP  RH WIND       PRES   REMARKS
NWS GREEN BAY  SUNNY      5  -7  57 W9        30.55F WCI  -9
APPLETON       SUNNY      3 -11  51 W12       30.53S WCI -13
OSHKOSH        SUNNY      3  -9  57 NW7       30.56S WCI  -9
FOND DU LAC    SUNNY      3  -9  57 NW13      30.57S WCI -14
$$

WIZ022-050-052-131800-
EAST CENTRAL WISCONSIN

CITY           SKY/WX    TMP DP  RH WIND       PRES   REMARKS
EPHRAIM        NOT AVBL
STURGEON BAY   SUNNY      5  -8  56 NW16G22   30.53R WCI -14
MANITOWOC      NOT AVBL
SHEBOYGAN      SUNNY      3  -9  57 NW13      30.55S WCI -14
$$

LMZ563-521-522-541>543-131800-
LAKESHORE

STATION/POSITION TIME  TEMP    WIND        PRES    VSBY  WAVE
                       AIR SEA DIR/SP/G                  HT/PER
                 (UTC) (F)     (DEG/KT/KT) (MB)    (MI)  (FT/S)
SHEBOYGAN LKSHOR 1600    2     280/ 15/ 19 1036.8R
KEWAUNEE LKSHORE 1600    3     300/ 12/ 16 1032.7R
SISTER BAY LKSHO 1605    9     330/ 21/ 24   N/A
CHAMBERS ISLAND  1600    6     300/ 12/ 18 1032.5R
MENOMINEE LKSHOR 1600    4     310/ 13     1032.2R
$$



USA.gov is the U.S. government's official web portal to all federal, state and local government web resources and services.